Regional Weather Roundup
Issued by NWS Jackson, KY

Home | Current Version | Previous Version | Graphics & Text | Print | Product List | Glossary On
Versions: 1 2 3 4 5 6 7 8 9 10 11 12 13 14 15 16 17 18 19 20 21 22 23 24 25 26 27 28 29 30 31 32 33 34 35 36 37 38 39 40 41 42 43 44 45 46 47 48 49 50
000
ASUS43 KJKL 231010
RWRJKL

EAST KENTUCKY HOURLY WEATHER ROUNDUP
NATIONAL WEATHER SERVICE JACKSON KY
500 AM EST FRI FEB 23 2018

NOTE: "FAIR" INDICATES FEW OR NO CLOUDS BELOW 12,000 FEET WITH
NO SIGNIFICANT WEATHER AND/OR OBSTRUCTIONS TO VISIBILITY.

* THESE REPORTS ARE NOT UNDER NWS QUALITY CONTROL AND MAY NOT
  REPORT WEATHER SUCH AS PRECIPITATION AND FOG.

KYZ079-080-083-085-087-088-110-112-115-119-120-231100
...EASTERN KENTUCKY...

CITY           SKY/WX    TMP DP  RH WIND       PRES   REMARKS
JACKSON        CLOUDY    57  54  89 S3        30.32S
LONDON           N/A     55  54  96 SE3       30.31F
SOMERSET*        N/A     57  57 100 S3        30.30F
WILLIAMSBURG*    N/A     57  57 100 SE8       30.32S
MIDDLESBORO*     N/A     66  59  77 SW13G20   30.36S
HARLAN APT*    CLOUDY    54  52  94 CALM      30.36F VSB 1/4
PIKE CO APT*     N/A     56  56 100 CALM      30.33F
BIG SANDY APT*   N/A     55  55 100 S5        30.33S
MOREHEAD APT*  CLOUDY    50  48  93 SE6       30.30F
ASHLAND*       LGT RAIN  47  46  97 CALM      30.33F
$$

KYZ035-036-041-042-044-050-067-078-099-231100
...CENTRAL KENTUCKY...

CITY           SKY/WX    TMP DP  RH WIND       PRES   REMARKS
MT STERLING*   MOCLDY    52  52 100 CALM      30.29F
FLEMING/MASON* CLOUDY    48  48 100 E6        30.29F FOG
DANVILLE*        N/A     55  55 100 SW3       30.27F
LEXINGTON        N/A     57  54  89 SE13G22   30.25F
FRANKFORT      FOG       52  49  89 E5        30.23F VSB 1/2
LOUISVILLE     RAIN      50  49  96 SE9       30.23F FOG
LEBANON*         N/A     63  59  88 S13       30.24F
GLASGOW*       MOCLDY    63  63 100 S8        30.25S
BOWLING GREEN  CLOUDY    64  61  90 S12       30.24R
$$

KYZ091>093-OHZ055-061-077-WVZ005-015-034-035-042-231100
...SOUTHERN OHIO/WEST VIRGINIA...

CITY           SKY/WX    TMP DP  RH WIND       PRES   REMARKS
COVINGTON      RAIN      47  47 100 E3        30.25F FOG
COLUMBUS       FOG       43  43 100 SE6       30.30F VSB 1
DAYTON         RAIN      45  45 100 SE12      30.25F VSB 1
WILMINGTON     LGT RAIN  45  45 100 E5        30.27F VSB 1/2
HUNTINGTON       N/A     48  46  93 CALM      30.32S FOG
CHARLESTON     MOCLDY    49  49 100 CALM      30.32F
BECKLEY          N/A     60  56  86 SE6       30.39S
BLUEFIELD        N/A     58  55  90 CALM      30.42S
LOGAN CO APT*    N/A     59  55  88 CALM      30.34S
$$

VAZ002-007-008-TNZ017-027-036-066-071-231100
...SOUTHWEST VIRGINIA/EAST TENNESSEE...

CITY           SKY/WX    TMP DP  RH WIND       PRES   REMARKS
WISE*            N/A     61  57  88 CALM      30.41F
JONESVILLE*      N/A     52  52 100 CALM      30.40S
ABINGDON*        N/A     56  55  95 CALM      30.40S
BRISTOL          N/A     52  52 100 CALM      30.38S FOG
MORRISTOWN*    MOSUNNY   55  54  94 CALM      30.36F
SEVIERVILLE*   SUNNY     52  52 100 CALM      30.36S
KNOXVILLE      MOCLDY    56  56 100 CALM      30.35S
LAFOLLETTE*    PTSUNNY   55  55 100 CALM      30.38S
OAK RIDGE      MOCLDY    59  59 100 CALM      30.37S
CROSSVILLE       N/A     61  58  90 S7        30.35F
NASHVILLE        N/A     57  55  93 CALM      30.27R
$$

...KEY TO REMARKS...
VSB - VISIBILITY IN MILES
WCI - WIND CHILL INDEX
HX  - HEAT INDEX

$$



USA.gov is the U.S. government's official web portal to all federal, state and local government web resources and services.